Location: Holyhead Bay
(53.3667°N, 4.6667°W)
Time: 21:40:58
(UTC+00:00)

Cosmos 1408 Rocket - Pass Details

Date: 19 April 2021
Orbit: 601 x 631 km, 82.6° (Epoch: 16 May)

Event Time Altitude Azimuth Distance (km) Brightness Sun altitude
Rises 22:14:59 0° 347° (NNW) 2,867 8.3 -20.1°
Reaches altitude 10° 22:17:12 10° 346° (NNW) 1,960 7.2 -20.2°
Maximum altitude 22:21:32 77° 262° (W) 627 3.5 -20.6°
Enters shadow 22:22:35 50° 188° (S) 772 3.7 -20.6°
